Location: *
(58.7167°N, 26.1833°E)
Time: 10:03:21
(UTC+00:00)

Lacrosse 4 Rocket - Pass Details

Date: 25 August 2019
Orbit: 543 x 616 km, 68.0° (Epoch: 15 September)

Event Time Altitude Azimuth Distance (km) Brightness Sun altitude
Rises 22:25:33 0° 309° (NW) 2,775 5.4 -20.7°
Reaches altitude 10° 22:28:26 10° 289° (WNW) 1,858 4.2 -20.6°
Enters shadow 22:30:25 16° 261° (W) 1,499 3.4 -20.6°
